1487955600.46,15449,9.56,71910.8,-13.71,-16.45,-16.79,0,*66
1487955601.69,15450,9.56,71850.5,-13.71,-16.55,-16.93,0,*6B
1487955602.93,15451,9.56,71886.0,-13.69,-16.41,-16.51,0,*68
1487955604.19,15452,9.56,71904.8,-13.71,-15.95,-15.89,0,*6E
1487955605.46,15453,9.56,71890.8,-13.71,-15.67,-15.81,0,*6A
1487955606.72,15454,9.56,71878.3,-13.71,-15.67,-16.17,0,*61
1487955607.96,15455,9.56,71896.3,-13.69,-16.13,-16.93,0,*65
1487955609.22,15456,9.56,71830.0,-13.69,-16.51,-17.03,0,*68
1487955610.44,15457,9.56,71800.3,-13.69,-16.59,-16.93,0,*69
1487955611.68,15458,9.56,71806.8,-13.69,-16.75,-17.21,0,*60
1487955612.94,15459,9.56,71816.0,-13.71,-16.79,-17.25,0,*60
1487955614.19,15460,9.56,71766.8,-13.71,-16.93,-17.25,0,*6E
1487955615.43,15461,9.56,71790.8,-13.69,-16.83,-17.25,0,*67
1487955616.72,15462,9.56,71822.8,-13.71,-16.69,-17.11,0,*6E
1487955617.93,15463,9.56,71860.8,-13.69,-16.59,-16.93,0,*6E
1487955619.23,15464,9.5,71902.3,-13.71,-16.65,-17.07,0,*63
1487955620.49,15465,9.56,71876.8,-13.71,-16.69,-16.97,0,*66
1487955621.71,15466,9.56,71906.8,-13.69,-16.59,-16.75,0,*63
1487955622.93,15467,9.56,71884.0,-13.69,-16.41,-16.03,0,*6A
1487955624.17,15468,9.56,71892.0,-13.69,-15.85,-15.71,0,*68
1487955625.43,15469,9.56,71898.0,-13.69,-15.57,-15.89,0,*61
1487955626.67,15470,9.5,71892.0,-13.69,-15.63,-15.89,0,*6E
1487955627.89,15471,9.56,71882.8,-13.69,-15.75,-15.75,0,*6B
1487955629.15,15472,9.56,71890.8,-13.69,-15.57,-15.43,0,*6D
1487955630.42,15473,9.56,71896.8,-13.69,-15.43,-15.39,0,*64
1487955631.63,15474,9.56,71902.5,-13.69,-15.11,-15.15,0,*6A
1487955632.85,15475,9.56,71882.0,-13.69,-15.11,-15.29,0,*64
1487955634.09,15476,9.56,71872.3,-13.69,-15.15,-15.39,0,*62
1487955635.34,15477,9.56,71868.5,-13.67,-15.53,-15.71,0,*63
1487955636.63,15478,9.56,71880.0,-13.67,-15.43,-15.43,0,*6C
1487955637.9,15479,9.56,71880.8,-13.67,-15.39,-15.63,0,*62
1487955639.16,15480,9.56,71880.0,-13.67,-15.71,-16.13,0,*6C
1487955640.43,15481,9.56,71888.8,-13.67,-16.27,-16.75,0,*6D
1487955641.7,15482,9.56,71890.5,-13.67,-16.79,-17.03,0,*65
1487955642.99,15483,9.56,71840.8,-13.67,-17.03,-17.21,0,*68
1487955644.23,15484,9.56,71822.5,-13.65,-16.83,-17.17,0,*61
1487955645.5,15485,9.56,71858.5,-13.67,-16.59,-17.03,0,*60
1487955646.77,15486,9.56,71856.5,-13.67,-16.89,-17.07,0,*6A
1487955647.99,15487,9.56,71872.5,-13.65,-16.83,-16.75,0,*67
1487955649.23,15488,9.56,71824.5,-13.67,-16.79,-16.45,0,*6C
1487955650.49,15489,9.56,71826.5,-13.69,-16.27,-15.89,0,*6B
1487955651.74,15490,9.56,71824.5,-13.67,-15.75,-15.53,0,*6E
1487955653.02,15491,9.56,71838.8,-13.67,-15.43,-15.29,0,*67
1487955654.26,15492,9.56,71836.5,-13.67,-15.29,-15.15,0,*67
1487955655.52,15493,9.56,71832.8,-13.65,-14.97,-14.97,0,*6B
1487955656.8,15494,9.56,71856.0,-13.67,-14.97,-15.01,0,*60
1487955658.07,15495,9.56,71854.3,-13.67,-15.15,-15.43,0,*6C
1487955659.31,15496,9.56,71866.3,-13.67,-15.53,-15.63,0,*6F
1487955660.58,15497,9.56,71840.5,-13.67,-15.49,-15.57,0,*62
1487955661.85,15498,9.56,71838.5,-13.67,-15.89,-15.75,0,*61
1487955663.11,15499,9.56,71822.5,-13.67,-15.99,-15.57,0,*61
1487955664.37,15500,9.56,71812.3,-13.67,-15.43,-15.11,0,*65
1487955665.63,15501,9.56,71824.0,-13.67,-15.01,-14.89,0,*62
1487955666.92,15502,9.56,71814.5,-13.67,-14.75,-14.75,0,*60
1487955668.18,15503,9.56,71820.0,-13.65,-14.79,-14.93,0,*67
1487955669.42,15504,9.56,71818.3,-13.65,-14.89,-14.97,0,*6B
1487955670.69,15505,9.56,71846.0,-13.67,-14.89,-14.97,0,*68
1487955671.95,15506,9.56,71846.5,-13.67,-14.97,-15.15,0,*6F
1487955673.16,15507,9.56,71858.0,-13.65,-15.07,-15.11,0,*60
1487955674.45,15508,9.56,71840.0,-13.67,-15.01,-15.39,0,*61
1487955675.72,15509,9.56,71846.3,-13.67,-15.39,-15.53,0,*67
1487955676.99,15510,9.56,71870.8,-13.65,-15.35,-15.81,0,*6E
1487955678.23,15511,9.56,71850.0,-13.65,-15.71,-16.23,0,*64
1487955679.5,15512,9.56,71842.5,-13.67,-16.03,-16.31,0,*60
1487955680.76,15513,9.56,71850.5,-13.67,-16.13,-16.45,0,*63
1487955681.98,15514,9.56,71882.3,-13.65,-16.37,-16.59,0,*6D
1487955683.21,15515,9.56,71890.5,-13.65,-16.55,-16.75,0,*66
1487955684.42,15516,9.56,71884.8,-13.65,-16.59,-16.97,0,*65
1487955685.67,15517,9.56,71910.5,-13.67,-16.79,-16.59,0,*66
1487955686.93,15518,9.56,71902.0,-13.67,-16.45,-16.51,0,*6E
1487955688.17,15519,9.56,71886.0,-13.65,-16.45,-16.69,0,*66
1487955689.45,15520,9.56,71868.5,-13.67,-16.75,-17.07,0,*64
1487955690.69,15521,9.56,71866.5,-13.65,-16.89,-17.11,0,*63
1487955691.93,15522,9.56,71854.3,-13.65,-16.97,-17.25,0,*68
1487955693.19,15523,9.56,71828.0,-13.65,-17.11,-17.17,0,*67
1487955694.48,15524,9.56,71834.3,-13.67,-17.03,-17.17,0,*61
1487955695.74,15525,9.56,71850.8,-13.67,-17.03,-16.93,0,*6D
1487955696.98,15526,9.56,71852.5,-13.65,-16.69,-16.45,0,*6A
1487955698.2,15527,9.56,71824.5,-13.65,-16.37,-16.41,0,*64
1487955699.46,15528,9.56,71846.3,-13.67,-16.59,-16.51,0,*60
1487955700.73,15529,9.56,71816.8,-13.67,-16.75,-16.27,0,*6E
1487955702.0,15530,9.56,71818.5,-13.67,-16.27,-15.75,0,*65
1487955703.24,15531,9.56,71816.0,-13.65,-15.71,-15.57,0,*66
1487955704.5,15532,9.56,71842.5,-13.67,-15.43,-15.63,0,*61
1487955705.79,15533,9.56,71816.3,-13.67,-15.43,-15.89,0,*64
1487955707.06,15534,9.56,71812.0,-13.67,-16.03,-16.31,0,*64
1487955708.31,15535,9.56,71816.0,-13.65,-16.13,-16.59,0,*68
1487955709.55,15536,9.56,71822.5,-13.67,-16.41,-16.89,0,*63
1487955710.79,15537,9.56,71852.3,-13.67,-16.59,-16.89,0,*6B
1487955712.08,15538,9.56,71848.8,-13.67,-17.03,-17.17,0,*6C
1487955713.32,15539,9.56,71804.5,-13.67,-17.31,-17.35,0,*6C
1487955714.61,15540,9.56,71828.8,-13.67,-17.21,-17.21,0,*66
1487955715.9,15541,9.56,71808.8,-13.67,-17.07,-17.21,0,*63
1487955717.16,15542,9.56,71830.8,-13.67,-16.93,-17.11,0,*6F
1487955718.43,15543,9.56,71818.0,-13.65,-17.03,-17.17,0,*62
1487955719.72,15544,9.56,71836.3,-13.67,-17.17,-17.17,0,*62
1487955720.95,15545,9.56,71842.3,-13.67,-17.31,-17.31,0,*63
1487955722.19,15546,9.56,71850.8,-13.65,-17.25,-17.31,0,*67
1487955723.43,15547,9.56,71860.5,-13.67,-17.31,-17.35,0,*65
1487955724.7,15548,9.56,71856.3,-13.65,-17.25,-17.25,0,*6C
1487955725.96,15549,9.56,71864.0,-13.67,-17.31,-17.21,0,*6E
1487955727.19,15550,9.56,71836.3,-13.67,-16.89,-16.45,0,*67
1487955728.41,15551,9.56,71836.3,-13.65,-16.41,-16.45,0,*60
1487955729.68,15552,9.56,71840.0,-13.67,-16.41,-16.65,0,*63
1487955730.95,15553,9.56,71832.5,-13.67,-16.79,-17.03,0,*68
1487955732.24,15554,9.56,71830.8,-13.67,-17.03,-17.17,0,*66
1487955733.53,15555,9.56,71808.3,-13.67,-17.07,-17.17,0,*63
1487955734.82,15556,9.56,71830.0,-13.67,-17.07,-17.17,0,*60
1487955736.09,15557,9.56,71842.0,-13.67,-16.89,-17.07,0,*67
1487955737.35,15558,9.56,71842.0,-13.69,-17.03,-17.17,0,*64
1487955738.64,15559,9.56,71854.3,-13.67,-17.07,-17.17,0,*6F
1487955739.93,15560,9.56,71870.0,-13.67,-17.07,-17.21,0,*60
1487955741.23,15561,9.56,71866.5,-13.67,-17.17,-17.21,0,*60
1487955742.5,15562,9.56,71858.5,-13.67,-17.17,-17.35,0,*66
1487955743.74,15563,9.56,71834.0,-13.67,-17.31,-17.49,0,*68
1487955744.98,15564,9.56,71822.8,-13.67,-17.31,-17.35,0,*64
1487955746.27,15565,9.56,71802.3,-13.67,-17.07,-17.17,0,*60
1487955747.52,15566,9.56,71800.8,-13.67,-16.75,-16.59,0,*6C
1487955748.76,15567,9.56,71876.0,-13.67,-16.41,-16.89,0,*67
1487955750.02,15568,9.56,71812.3,-13.65,-16.69,-17.25,0,*67
1487955751.29,15569,9.56,71814.0,-13.67,-17.17,-17.49,0,*66
1487955752.56,15570,9.56,71812.8,-13.65,-17.25,-17.45,0,*61
1487955753.82,15571,9.56,71836.5,-13.67,-17.31,-17.55,0,*66
1487955755.08,15572,9.56,71826.3,-13.67,-17.35,-17.63,0,*64
1487955756.35,15573,9.56,71832.5,-13.67,-17.45,-17.69,0,*68
1487955757.64,15574,9.56,71798.0,-13.67,-17.21,-17.55,0,*62
1487955758.9,15575,9.56,71830.3,-13.67,-17.31,-17.55,0,*62
1487955760.16,15576,9.56,71836.5,-13.67,-17.31,-17.63,0,*64
1487955761.42,15577,9.56,71846.8,-13.67,-17.31,-17.63,0,*65
1487955762.71,15578,9.56,71854.5,-13.67,-17.21,-17.63,0,*6B
1487955763.96,15579,9.56,71870.0,-13.65,-17.45,-17.73,0,*6B
1487955765.2,15580,9.56,71864.5,-13.67,-17.35,-17.69,0,*63
1487955766.47,15581,9.56,71846.5,-13.67,-17.35,-17.63,0,*68
1487955767.74,15582,9.56,71862.0,-13.67,-17.45,-17.83,0,*62
1487955768.98,15583,9.56,71852.8,-13.65,-17.25,-17.73,0,*68
1487955770.25,15584,9.56,71858.0,-13.67,-17.21,-17.69,0,*62
1487955771.52,15585,9.56,71840.0,-13.67,-17.35,-17.79,0,*67
1487955772.79,15586,9.56,71874.5,-13.67,-17.45,-17.83,0,*66
1487955774.04,15587,9.56,71874.5,-13.67,-17.35,-17.83,0,*60
1487955775.31,15588,9.56,71840.3,-13.67,-17.49,-17.97,0,*61
1487955776.58,15589,9.56,71872.8,-13.67,-17.55,-18.07,0,*6B
1487955777.84,15590,9.56,71878.5,-13.67,-17.63,-18.07,0,*66
1487955779.1,15591,9.56,71878.0,-13.67,-17.63,-18.07,0,*67
1487955780.32,15592,9.56,71918.8,-13.65,-17.49,-18.07,0,*6E
1487955781.55,15593,9.56,71886.0,-13.65,-17.63,-18.17,0,*66
1487955782.79,15594,9.56,71884.0,-13.65,-17.79,-18.17,0,*6A
1487955784.05,15595,9.56,71902.0,-13.67,-17.79,-18.21,0,*6C
1487955785.28,15596,9.56,71888.8,-13.69,-17.63,-18.21,0,*6A
1487955786.54,15597,9.56,71896.0,-13.67,-17.93,-18.41,0,*6C
1487955787.81,15598,9.56,71880.8,-13.67,-17.97,-18.45,0,*63
1487955789.07,15599,9.56,71878.5,-13.67,-17.93,-18.41,0,*62
1487955790.31,15600,9.56,71858.8,-13.67,-18.07,-18.45,0,*67
1487955791.54,15601,9.56,71846.5,-13.69,-18.07,-18.55,0,*69
1487955792.81,15602,9.56,71832.8,-13.69,-17.97,-18.55,0,*6C
1487955794.04,15603,9.56,71854.5,-13.69,-18.07,-18.59,0,*67
1487955795.3,15604,9.56,71872.8,-13.69,-17.93,-18.35,0,*68
1487955796.57,15605,9.56,71874.5,-13.71,-17.97,-18.45,0,*63
1487955797.81,15606,9.56,71856.0,-13.69,-17.97,-18.45,0,*69
1487955799.04,15607,9.56,71860.5,-13.69,-18.07,-18.55,0,*6F
1487955800.25,15608,9.56,71860.0,-13.69,-18.07,-18.41,0,*65
1487955801.52,15609,9.56,71856.0,-13.71,-17.87,-18.31,0,*6D
1487955802.76,15610,9.56,71852.3,-13.69,-17.83,-18.35,0,*6C
1487955804.02,15611,9.56,71888.3,-13.69,-17.79,-18.35,0,*68
1487955805.28,15612,9.56,71874.8,-13.69,-17.63,-18.35,0,*60
1487955806.52,15613,9.56,71862.8,-13.69,-17.63,-18.41,0,*62
1487955807.74,15614,9.56,71870.0,-13.69,-17.63,-18.41,0,*65
1487955808.95,15615,9.56,71884.0,-13.69,-17.69,-18.45,0,*6A
1487955810.17,15616,9.56,71886.8,-13.69,-17.83,-18.45,0,*6D
1487955811.38,15617,9.56,71896.3,-13.69,-17.83,-18.45,0,*6C
1487955812.59,15618,9.56,71890.8,-13.69,-17.83,-18.41,0,*67
1487955813.83,15619,9.56,71890.8,-13.69,-17.97,-18.45,0,*67
1487955815.04,15620,9.56,71892.5,-13.69,-17.83,-18.25,0,*6E
1487955816.33,15621,9.56,71902.0,-13.67,-17.97,-18.55,0,*63
1487955817.58,15622,9.56,71906.0,-13.71,-18.11,-18.59,0,*6A
1487955818.8,15623,9.56,71930.3,-13.69,-18.07,-18.21,0,*6A
1487955820.08,15624,9.56,71858.0,-13.71,-18.01,-18.01,0,*60
1487955821.33,15625,9.56,71790.0,-13.69,-17.93,-17.83,0,*69
1487955822.56,15626,9.56,71840.5,-13.69,-17.49,-17.63,0,*63
1487955823.83,15627,9.56,71824.0,-13.71,-17.41,-16.97,0,*69
1487955825.09,15628,9.56,71838.8,-13.71,-16.83,-16.65,0,*64
1487955826.33,15629,9.56,71852.5,-13.71,-16.45,-16.37,0,*68
1487955827.57,15630,9.56,71842.3,-13.69,-16.41,-16.13,0,*6B
1487955828.79,15631,9.56,71858.3,-13.69,-16.03,-15.53,0,*6B
1487955830.03,15632,9.56,71876.5,-13.69,-15.63,-15.43,0,*6C
1487955831.25,15633,9.56,71868.0,-13.69,-15.53,-15.29,0,*62
1487955832.54,15634,9.56,71840.8,-13.71,-15.57,-15.43,0,*64
1487955833.79,15635,9.56,71842.0,-13.69,-15.43,-15.29,0,*65
1487955835.08,15636,9.56,71852.0,-13.71,-15.43,-15.21,0,*67
1487955836.31,15637,9.56,71854.8,-13.69,-15.25,-15.01,0,*6D
1487955837.55,15638,9.56,71810.0,-13.69,-15.11,-14.97,0,*6B
1487955838.78,15639,9.56,71782.5,-13.69,-15.01,-14.89,0,*64
1487955840.02,15640,9.56,71812.5,-13.69,-14.75,-14.89,0,*68
1487955841.31,15641,9.56,71818.3,-13.71,-14.75,-14.93,0,*6B
1487955842.59,15642,9.56,71836.5,-13.71,-14.75,-14.93,0,*68
1487955843.85,15643,9.56,71844.3,-13.67,-14.69,-15.01,0,*69
1487955845.11,15644,9.56,71858.3,-13.67,-14.89,-15.43,0,*66
1487955846.35,15645,9.56,71858.0,-13.67,-15.25,-16.45,0,*65
1487955847.57,15646,9.56,71856.8,-13.65,-16.41,-18.07,0,*6D
1487955848.81,15647,9.56,71848.8,-13.67,-17.49,-18.45,0,*61
1487955850.09,15648,9.56,71828.5,-13.67,-17.79,-18.55,0,*6C
1487955851.36,15649,9.56,71850.8,-13.65,-17.97,-18.35,0,*69
1487955852.58,15650,9.56,71836.0,-13.65,-17.87,-18.21,0,*65
1487955853.82,15651,9.56,71840.8,-13.65,-18.01,-18.21,0,*65
1487955855.08,15652,9.56,71838.5,-13.65,-17.93,-17.93,0,*64
1487955856.33,15653,9.56,71842.5,-13.67,-17.83,-17.69,0,*63
1487955857.59,15654,9.56,71848.0,-13.67,-17.49,-17.17,0,*6B
1487955858.88,15655,9.56,71874.0,-13.67,-17.17,-16.65,0,*65
1487955860.16,15656,9.56,71882.3,-13.67,-16.41,-16.17,0,*61
1487955861.45,15657,9.56,71872.3,-13.67,-16.17,-16.17,0,*63
1487955862.75,15658,9.56,71862.5,-13.67,-16.17,-16.27,0,*6F
1487955864.04,15659,9.56,71860.8,-13.67,-15.89,-16.13,0,*6D
1487955865.3,15660,9.56,71888.8,-13.67,-15.85,-15.99,0,*6A
1487955866.6,15661,9.56,71870.0,-13.67,-15.85,-16.17,0,*6E
1487955867.86,15662,9.56,71852.5,-13.69,-16.13,-16.51,0,*6D
1487955869.1,15663,9.56,71840.3,-13.67,-16.59,-16.89,0,*69
1487955870.39,15664,9.56,71868.8,-13.67,-17.07,-17.03,0,*67
1487955871.66,15665,9.56,71870.0,-13.67,-17.17,-16.45,0,*64
1487955872.95,15666,9.56,71826.5,-13.67,-17.03,-16.27,0,*66
1487955874.24,15667,9.56,71788.5,-13.67,-16.51,-15.85,0,*6A
1487955875.5,15668,9.56,71770.0,-13.67,-15.85,-15.63,0,*67
1487955876.75,15669,9.56,71832.0,-13.67,-15.75,-15.75,0,*6E
1487955877.99,15670,9.56,71850.8,-13.67,-15.63,-15.71,0,*65
1487955879.26,15671,9.56,71868.3,-13.67,-15.57,-15.71,0,*63
1487955880.52,15672,9.56,71876.3,-13.67,-15.57,-15.71,0,*60
1487955881.75,15673,9.56,71870.0,-13.65,-15.53,-15.49,0,*6C
1487955883.02,15674,9.56,71878.0,-13.67,-15.43,-15.53,0,*63
1487955884.27,15675,9.56,71894.5,-13.65,-15.53,-15.39,0,*6D
1487955885.51,15676,9.56,71904.3,-13.67,-15.53,-15.15,0,*62
1487955886.75,15677,9.56,71914.3,-13.65,-15.39,-15.07,0,*6E
1487955888.0,15678,9.56,71902.8,-13.65,-15.25,-14.83,0,*61
1487955889.23,15679,9.56,71914.3,-13.67,-15.11,-14.89,0,*6F
1487955890.51,15680,9.56,71918.8,-13.65,-14.83,-14.79,0,*6E
1487955891.75,15681,9.56,71928.5,-13.65,-14.89,-14.97,0,*65
1487955893.0,15682,9.56,71932.0,-13.65,-14.79,-15.25,0,*61
1487955894.24,15683,9.56,71912.8,-13.65,-15.21,-15.95,0,*67
1487955895.45,15684,9.56,71880.0,-13.65,-15.67,-16.59,0,*61
1487955896.74,15685,9.56,71876.3,-13.67,-16.27,-17.21,0,*6B
1487955898.01,15686,9.56,71882.3,-13.67,-16.75,-17.21,0,*6F
1487955899.24,15687,9.56,71874.5,-13.65,-16.59,-16.59,0,*6C
1487955900.45,15688,9.56,71882.5,-13.65,-16.37,-15.99,0,*64
1487955901.72,15689,9.56,71862.5,-13.67,-16.13,-16.03,0,*61
1487955902.94,15690,9.56,71856.3,-13.65,-15.71,-15.99,0,*6C
1487955904.18,15691,9.56,71866.0,-13.65,-15.53,-16.23,0,*6F
1487955905.44,15692,9.56,71886.5,-13.67,-16.13,-16.93,0,*62
1487955906.66,15693,9.56,71894.3,-13.65,-16.55,-16.97,0,*67
1487955907.88,15694,9.56,71898.0,-13.65,-16.83,-16.89,0,*64
1487955909.12,15695,9.56,71870.8,-13.65,-16.97,-16.69,0,*6E
1487955910.34,15696,9.56,71866.5,-13.65,-16.55,-15.99,0,*6F
1487955911.55,15697,9.56,71862.8,-13.63,-15.99,-15.75,0,*69
1487955912.79,15698,9.56,71888.0,-13.63,-15.57,-15.71,0,*60
1487955914.06,15699,9.56,71888.8,-13.63,-15.57,-16.23,0,*65
1487955915.31,15700,9.56,71896.5,-13.63,-16.09,-16.55,0,*6D
1487955916.53,15701,9.56,71886.8,-13.63,-16.41,-16.59,0,*6C
1487955917.77,15702,9.56,71904.5,-13.65,-16.27,-16.37,0,*61
1487955918.99,15703,9.56,71888.0,-13.63,-15.99,-16.75,0,*66
1487955920.24,15704,9.56,71910.0,-13.63,-16.41,-17.03,0,*67
1487955921.48,15705,9.56,71882.3,-13.63,-17.03,-17.31,0,*60
1487955922.72,15706,9.56,71886.8,-13.63,-17.17,-17.73,0,*60
1487955923.99,15707,9.56,71906.3,-13.63,-17.45,-18.01,0,*6C
1487955925.21,15708,9.56,71902.3,-13.63,-17.73,-18.17,0,*61
1487955926.47,15709,9.56,71892.0,-13.61,-17.73,-18.01,0,*65
1487955927.69,15710,9.56,71898.0,-13.63,-17.87,-18.07,0,*62
1487955928.93,15711,9.56,71904.8,-13.63,-17.73,-18.01,0,*6E
1487955930.17,15712,9.56,71906.3,-13.63,-17.73,-17.93,0,*69
1487955931.41,15713,9.56,71906.3,-13.65,-17.73,-18.01,0,*6A
1487955932.62,15714,9.56,71884.5,-13.65,-17.73,-17.73,0,*67
1487955933.84,15715,9.56,71888.8,-13.63,-16.89,-16.59,0,*6D
1487955935.08,15716,9.56,71902.0,-13.65,-16.23,-16.37,0,*60
1487955936.3,15717,9.56,71886.8,-13.65,-16.37,-16.59,0,*6C
1487955937.55,15718,9.56,71890.5,-13.65,-16.41,-16.69,0,*61
1487955938.79,15719,9.56,71906.5,-13.65,-16.75,-17.17,0,*6F
1487955940.03,15720,9.56,71898.8,-13.63,-17.25,-17.31,0,*63
1487955941.28,15721,9.56,71892.0,-13.63,-16.97,-17.03,0,*6B
1487955942.52,15722,9.56,71914.8,-13.63,-16.89,-17.25,0,*63
1487955943.78,15723,9.56,71920.8,-13.65,-17.25,-17.45,0,*65
1487955945.02,15724,9.56,71888.5,-13.67,-17.31,-17.49,0,*69
1487955946.26,15725,9.56,71874.3,-13.65,-17.31,-17.45,0,*66
1487955947.49,15726,9.56,71924.8,-13.65,-17.25,-17.31,0,*63
1487955948.76,15727,9.56,71892.8,-13.65,-17.25,-17.25,0,*67
1487955949.97,15728,9.56,71908.3,-13.63,-17.31,-17.49,0,*61
1487955951.21,15729,9.56,71902.8,-13.63,-17.35,-17.25,0,*6E
1487955952.46,15730,9.56,71906.0,-13.63,-17.49,-17.59,0,*66
1487955953.71,15731,9.56,71876.8,-13.63,-17.49,-17.59,0,*67
1487955954.95,15732,9.56,71886.3,-13.63,-17.49,-17.63,0,*6D
1487955956.22,15733,9.56,71890.8,-13.65,-17.45,-17.59,0,*6F
1487955957.47,15734,9.56,71862.3,-13.63,-17.41,-17.49,0,*6B
1487955958.71,15735,9.56,71866.3,-13.65,-17.41,-17.49,0,*6C
1487955959.95,15736,9.56,71848.5,-13.65,-17.41,-17.31,0,*60
1487955961.22,15737,9.56,71870.3,-13.65,-17.17,-17.17,0,*66
1487955962.49,15738,9.56,71886.5,-13.65,-17.03,-17.11,0,*6A
1487955963.75,15739,9.56,71850.5,-13.65,-17.11,-17.25,0,*6F
1487955965.02,15740,9.56,71848.5,-13.65,-17.25,-17.45,0,*60
1487955966.29,15741,9.56,71836.0,-13.61,-17.35,-17.55,0,*65
1487955967.56,15742,9.56,71824.8,-13.67,-17.83,-17.97,0,*63
1487955968.8,15743,9.56,71854.0,-13.65,-17.49,-17.79,0,*66
1487955970.08,15744,9.56,71830.5,-13.65,-17.45,-17.59,0,*6F
1487955971.35,15745,9.56,71834.0,-13.63,-17.41,-17.59,0,*6C
1487955972.59,15746,9.56,71830.8,-13.65,-17.25,-17.31,0,*65
1487955973.83,15747,9.56,71804.5,-13.65,-17.17,-17.31,0,*65
1487955975.13,15748,9.56,71828.0,-13.67,-17.17,-17.21,0,*69
1487955976.39,15749,9.56,71742.5,-13.65,-17.11,-17.25,0,*68
1487955977.63,15750,9.56,71800.8,-13.65,-17.31,-17.45,0,*64
1487955978.89,15751,9.56,71852.5,-13.65,-17.17,-17.25,0,*67
1487955980.16,15752,9.56,71872.0,-13.65,-17.11,-17.25,0,*62
1487955981.42,15753,9.56,71878.3,-13.65,-17.11,-17.25,0,*63
1487955982.68,15754,9.56,71830.5,-13.65,-17.11,-17.25,0,*64
1487955983.97,15755,9.56,71842.3,-13.67,-17.21,-17.21,0,*60
1487955985.23,15756,9.56,71834.5,-13.65,-17.11,-17.17,0,*67
1487955986.47,15757,9.56,71836.8,-13.65,-16.97,-17.17,0,*69
1487955987.72,15758,9.56,71870.8,-13.65,-16.89,-17.03,0,*6C
1487955988.96,15759,9.56,71878.0,-13.65,-16.89,-17.03,0,*6D
1487955990.2,15760,9.56,71882.3,-13.63,-16.89,-17.11,0,*62
1487955991.45,15761,9.56,71882.8,-13.63,-16.97,-17.11,0,*6C
1487955992.69,15762,9.56,71902.8,-13.63,-16.97,-17.11,0,*6F
1487955993.93,15763,9.56,71888.0,-13.63,-16.97,-17.11,0,*6E
1487955995.2,15764,9.56,71840.8,-13.63,-17.03,-17.25,0,*62
1487955996.47,15765,9.56,71834.3,-13.63,-17.03,-17.17,0,*62
1487955997.71,15766,9.56,71860.5,-13.63,-16.97,-17.17,0,*6D
1487955998.95,15767,9.56,71842.3,-13.63,-16.89,-17.11,0,*65
1487956000.19,15768,9.56,71884.3,-13.63,-16.97,-17.11,0,*65
1487956001.47,15769,9.56,71904.0,-13.61,-16.83,-17.07,0,*64
1487956002.71,15770,9.56,71880.5,-13.63,-16.97,-17.17,0,*6A
1487956003.98,15771,9.56,71876.5,-13.63,-17.03,-17.17,0,*67
1487956005.24,15772,9.56,71886.8,-13.63,-17.11,-17.17,0,*67
1487956006.48,15773,9.56,71884.3,-13.63,-16.89,-17.17,0,*66
1487956007.72,15774,9.56,71908.5,-13.63,-16.97,-17.17,0,*6E
1487956008.99,15775,9.56,71886.5,-13.61,-16.93,-17.11,0,*6F
1487956010.25,15776,9.56,71894.8,-13.63,-17.11,-17.17,0,*63
1487956011.52,15777,9.56,71896.0,-13.61,-16.97,-17.07,0,*6E
1487956012.79,15778,9.56,71892.0,-13.63,-17.11,-17.11,0,*6B
1487956014.03,15779,9.56,71904.3,-13.63,-17.03,-16.97,0,*66
1487956015.27,15780,9.56,71942.3,-13.63,-16.89,-16.69,0,*62
1487956016.49,15781,9.56,71918.0,-13.63,-16.97,-16.55,0,*63
1487956017.71,15782,9.56,71956.0,-13.63,-16.97,-16.55,0,*60
1487956018.95,15783,9.56,71926.5,-13.63,-17.03,-16.37,0,*69
1487956020.19,15784,9.56,71740.8,-13.63,-16.97,-16.23,0,*67
1487956021.42,15785,9.56,71894.5,-13.63,-16.55,-15.71,0,*6C
1487956022.71,15786,9.56,71890.3,-13.61,-16.17,-15.35,0,*6B
1487956023.98,15787,9.56,71902.0,-13.61,-16.03,-15.21,0,*6A
1487956025.22,15788,9.56,71922.0,-13.63,-15.67,-14.97,0,*6A
1487956026.44,15789,9.56,71900.8,-13.65,-15.49,-15.07,0,*69
1487956027.72,15790,9.56,71866.0,-13.61,-15.21,-15.01,0,*6D
1487956028.96,15791,9.56,71864.3,-13.63,-15.11,-14.97,0,*63
1487956030.23,15792,9.56,71874.3,-13.65,-14.97,-14.97,0,*69
1487956031.44,15793,9.56,71864.3,-13.63,-15.07,-15.07,0,*6E
1487956032.73,15794,9.56,71846.8,-13.61,-14.93,-14.93,0,*6B
1487956033.99,15795,9.56,71846.0,-13.63,-14.93,-14.97,0,*6C
1487956035.27,15796,9.56,71834.3,-13.63,-14.83,-14.97,0,*6E
1487956036.53,15797,9.56,71842.0,-13.63,-14.93,-14.97,0,*6E
1487956037.78,15798,9.56,71858.5,-13.63,-14.83,-15.07,0,*68
1487956039.04,15799,9.56,71876.3,-13.63,-14.93,-15.21,0,*6C
1487956040.31,15800,9.56,71876.0,-13.61,-14.79,-15.15,0,*62
1487956041.58,15801,9.56,71864.5,-13.63,-14.83,-15.35,0,*66
1487956042.87,15802,9.56,71882.5,-13.61,-14.93,-15.35,0,*66
1487956044.08,15803,9.56,71892.0,-13.65,-15.07,-15.71,0,*6F
1487956045.33,15804,9.56,71872.5,-13.63,-15.53,-16.13,0,*68
1487956046.57,15805,9.56,71880.0,-13.63,-15.71,-16.13,0,*69
1487956047.81,15806,9.56,71904.3,-13.63,-15.81,-15.99,0,*64
1487956049.05,15807,9.56,71838.0,-13.63,-15.71,-16.23,0,*68
1487956050.29,15808,9.56,71860.3,-13.63,-15.71,-16.13,0,*64
1487956051.56,15809,9.56,71858.3,-13.61,-15.75,-15.89,0,*63
1487956052.83,15810,9.56,71884.3,-13.61,-15.67,-15.89,0,*68
1487956054.05,15811,9.56,71874.3,-13.63,-15.71,-15.95,0,*61
1487956055.29,15812,9.56,71862.5,-13.61,-15.49,-15.75,0,*65
1487956056.56,15813,9.56,71860.0,-13.61,-15.43,-15.63,0,*69
1487956057.85,15814,9.56,71892.3,-13.61,-15.21,-15.35,0,*69
1487956059.07,15815,9.56,71944.0,-13.63,-15.07,-15.25,0,*6F
1487956060.35,15816,9.56,71820.5,-13.61,-15.21,-15.35,0,*6B
1487956061.6,15817,9.56,71874.8,-13.63,-15.25,-15.57,0,*68
1487956062.87,15818,9.56,71828.0,-13.61,-15.53,-16.23,0,*64
1487956064.11,15819,9.56,71826.5,-13.61,-15.63,-16.03,0,*64
1487956065.37,15820,9.56,71846.0,-13.61,-15.63,-15.89,0,*6F
1487956066.64,15821,9.56,71842.8,-13.61,-15.43,-15.95,0,*61
1487956067.93,15822,9.56,71874.5,-13.61,-15.81,-16.65,0,*60
1487956069.23,15823,9.56,71870.3,-13.61,-16.17,-16.69,0,*61
1487956070.49,15824,9.56,71900.5,-13.59,-16.23,-16.65,0,*66
1487956071.73,15825,9.56,71890.0,-13.61,-16.37,-16.93,0,*60
1487956072.95,15826,9.56,71870.3,-13.63,-16.37,-16.83,0,*60
1487956074.23,15827,9.56,71874.3,-13.61,-16.41,-17.07,0,*6F
1487956075.54,15828,9.56,71872.8,-13.61,-16.65,-17.07,0,*66
1487956076.84,15829,9.56,71884.0,-13.61,-16.51,-17.07,0,*60
1487956078.1,15830,9.56,71896.0,-13.63,-16.69,-17.17,0,*60
1487956079.4,15831,9.56,71896.3,-13.61,-16.65,-17.07,0,*6E
1487956080.68,15832,9.56,71890.0,-13.61,-16.55,-17.07,0,*6E
1487956081.99,15833,9.56,71910.0,-13.61,-16.65,-17.07,0,*6C
1487956083.26,15834,9.56,71912.5,-13.59,-16.65,-17.11,0,*67
1487956084.53,15835,9.56,71916.8,-13.59,-16.65,-17.11,0,*66
1487956085.8,15836,9.56,71912.0,-13.61,-16.55,-17.11,0,*6D
1487956087.07,15837,9.56,71918.0,-13.61,-16.65,-16.97,0,*60
1487956088.34,15838,9.56,71926.5,-13.61,-16.69,-16.79,0,*63
1487956089.63,15839,9.56,71932.5,-13.61,-16.69,-16.31,0,*6E
1487956090.86,15840,9.56,71922.0,-13.59,-16.55,-16.03,0,*65
1487956092.07,15841,9.56,71914.8,-13.59,-15.95,-15.67,0,*6A
1487956093.34,15842,9.56,71874.0,-13.61,-15.35,-15.49,0,*64
1487956094.58,15843,9.56,71880.5,-13.59,-15.21,-15.95,0,*6A
1487956095.83,15844,9.56,71880.0,-13.59,-15.43,-16.41,0,*63
1487956097.07,15845,9.56,71884.5,-13.59,-16.03,-16.69,0,*6F
1487956098.34,15846,9.56,71894.8,-13.59,-16.23,-16.69,0,*6E
1487956099.6,15847,9.56,71892.0,-13.61,-16.23,-16.93,0,*61
1487956100.82,15848,9.56,71908.0,-13.59,-16.37,-16.83,0,*61